Live-Position
3D-Globus wird geladen...
Über Starlink 5706
Group: 3 satellites
Beschreibung wird geladen...
Nächste Überflüge
Passes for default location (London). Set your location on the main map for personalized predictions.
Höhenverlauf
Loading altitude history...
No altitude history available
Zweizeiliger Elementsatz
1 55488U 23015AR 26106.73417435 -.00055318 00000-0 -20445-2 0 9991
2 55488 43.0025 124.8703 0001364 47.2395 312.8571 15.27115818176410
Epoch: 16. Apr. 2026 •
Age: 15 hours
Aktueller Status
Höhe 498.7 km
Geschwindigkeit 7.62 km/s
Subsatellitenpunkt -43.11°S,
55.18°E
Startdatum 2. Feb. 2023
Alter 3.2 years
Typ internet
Startgruppe
Falcon 9 •
Group 5-3 •
49 satellites
Starlink 5699
55449
Starlink 5686 55450
Starlink 5656 55451
Starlink 5683 55452
Starlink 5684 55453
Starlink 5636 55454
Starlink 5680 55455
Starlink 5058 55456
Starlink 5682 55457
Starlink 5020 55458
Starlink 5669 55459
Starlink 5678 55460
Starlink 5646 55461
Starlink 5673 55462
Starlink 5677 55463
Starlink 5676 55464
Starlink 5674 55465
Starlink 5628 55466
Starlink 5679 55467
Starlink 5672 55468
...and 28 more
Technische Details
Klassifizierung Payload
Masse 305.00 kg
Trockenmasse 290.00 kg
Gesamtmasse 305.00 kg
Länge 0.20 m
Durchmesser 2.80 m
Spannweite 9.00 m
Form Box + pan
Hersteller SPXS
Bus-Typ Starlink
Phasenstatus In Orbit
Besitzer/Staat SPXS/US
Most Searched
Loading...